This demonstration page uses our WeatherBlox Daily Observations layout. Learn more.

Left ArrowRight Arrow

40.92501, -98.34201

Hourly Observations for September 1, 2022

Temp ( °F °C ) Dew Point ( °F °C ) Humidity (%) Winds ( mph kmh ) Pressure ( in mb ) Visibility ( mi km ) Precip ( " mm )
12:53 am 00:53 Clear 69 20.6 61 16.1 75 75 N 3 6 29.97 1015 10 16 0.00 0.00
1:53 am 01:53 Clear 69 20.6 61 16.1 75 75 SSW 5 7 29.97 1015 10 16 0.00 0.00
2:53 am 02:53 Clear 69 20.6 61 16.1 75 75 SSW 3 6 29.98 1015 10 16 0.00 0.00
3:53 am 03:53 Mostly Clear 69 20.6 61 16.1 75 75 Calm 29.97 1015 10 16 0.00 0.00
4:53 am 04:53 Mostly Clear 68 20 62 16.7 81 81 Calm 29.98 1015 10 16 0.00 0.00
5:53 am 05:53 Clear 67 19.4 61 16.1 81 81 WSW 5 7 29.99 1016 10 16 0.00 0.00
6:53 am 06:53 Clear 68 20 60 15.6 76 76 Calm 30.01 1016 10 16 0.00 0.00
7:53 am 07:53 Sunny 68 20 60 15.6 76 76 Calm 30.02 1017 10 16 0.00 0.00
8:53 am 08:53 Sunny 76 24.4 59 15 56 56 SW 5 7 30.00 1016 10 16 0.00 0.00
9:53 am 09:53 Sunny 82 27.8 57 13.9 43 43 SSW 8 13 29.98 1015 10 16 0.00 0.00
10:53 am 10:53 Sunny 85 29.4 58 14.4 40 40 WSW 10 17 29.97 1015 10 16 0.00 0.00
11:53 am 11:53 Sunny 87 30.6 57 13.9 36 36 SSW 9 15 29.96 1015 10 16 0.00 0.00
12:53 pm 12:53 Sunny 89 31.7 59 15 36 36 S 10 17 29.95 1014 10 16 0.00 0.00
1:53 pm 13:53 Sunny 89 31.7 58 14.4 35 35 S 13 20 29.93 1014 10 16 0.00 0.00
2:53 pm 14:53 Sunny 90 32.2 58 14.4 34 34 S 15 24 29.91 1013 10 16 0.00 0.00
3:53 pm 15:53 Sunny 91 32.8 57 13.9 32 32 S 15 24 29.88 1012 10 16 0.00 0.00
4:53 pm 16:53 Sunny 92 33.3 58 14.4 32 32 SSW 14 22 29.86 1011 10 16 0.00 0.00
5:53 pm 17:53 Sunny 91 32.8 59 15 34 34 SSW 12 19 29.85 1011 10 16 0.00 0.00
6:53 pm 18:53 Sunny 89 31.7 61 16.1 39 39 S 9 15 29.84 1011 10 16 0.00 0.00
7:53 pm 19:53 Sunny 84 28.9 62 16.7 48 48 SE 5 7 29.84 1010 10 16 0.00 0.00
8:53 pm 20:53 Clear 77 25 63 17.2 62 62 SE 6 9 29.85 1011 10 16 0.00 0.00
9:53 pm 21:53 Clear 76 24.4 64 17.8 67 67 SSE 7 11 29.86 1011 10 16 0.00 0.00
10:53 pm 22:53 Clear 74 23.3 61 16.1 64 64 S 9 15 29.85 1011 10 16 0.00 0.00
11:53 pm 23:53 Clear 73 22.8 58 14.4 59 59 S 10 17 29.85 1011 10 16 0.00 0.00

Powered by AerisWeather